DELTA 2 R/B

基本信息
目录编号:
36120
目录名称:
DELTA 2 R/B
国际标识:
2009-071B
轨道中心:
EARTH
物体状态:
在轨
发射日期:
2009-12-14 UTC
国别:
美国 (US)
轨道信息
数据来源: 国际轨道数据
星历时间: 2026-07-13T14:56:37+0800
半长轴: 12978.327km
偏心率: 0.3442142
轨道倾角: 97.510°
近地点辐角: 90.244°
升交点赤经: 118.178°
平近点角: 308.522°
近地点: 2132.865km
远地点: 11067.515km
周期: 245.238分钟
每日圈数: 5.871847
详细信息
发射场:
AFWTR
轨道高度:
MEO
数据来源:
AOE Integration Group
参考系:
TEME
时间系统:
UTC
历元类型:
SGP4
2D轨道图
3D轨道图
轨道高度分析图
轨道倾角分析图
轨道综合分析图
查看轨道综合分析图